This is the latest recevied weather packets stored in our database for station/object JS2QVS-13. If no packets are shown the sender has not sent any weather packets the latest 10 day(s).
| Time | Temp. | Humidity | Pressure | Rain* | Wind** | Luminosity | Snow |
|---|---|---|---|---|---|---|---|
| 1777795662 | 19.44° C | 84% | 1004.7 hPa | 1.78 mm | - | - | - |
| 1777795062 | 20° C | 82% | 1005 hPa | 1.27 mm | - | - | - |
| 1777794461 | 20° C | 80% | 1005.2 hPa | 0.51 mm | - | - | - |
| 1777793861 | 20.56° C | 77% | 1005 hPa | 0 mm | - | - | - |
| 1777793261 | 20.56° C | 76% | 1005 hPa | 0 mm | - | - | - |
| 1777792663 | 21.11° C | 76% | 1005.3 hPa | 0 mm | - | - | - |
| 1777792063 | 21.11° C | 75% | 1005.2 hPa | 0 mm | - | - | - |
| 1777791463 | 21.11° C | 74% | 1005.1 hPa | 0 mm | - | - | - |
| 1777790862 | 21.11° C | 75% | 1005.1 hPa | 0 mm | - | - | - |
| 1777790262 | 21.11° C | 75% | 1005.1 hPa | 0 mm | - | - | - |
| 1777789662 | 21.11° C | 75% | 1005.3 hPa | 0 mm | - | - | - |
| 1777789062 | 21.11° C | 75% | 1005.3 hPa | 0 mm | - | - | - |
| 1777788462 | 21.11° C | 73% | 1005.4 hPa | 0 mm | - | - | - |
| 1777787861 | 21.11° C | 73% | 1005.6 hPa | 0 mm | - | - | - |
| 1777787261 | 21.11° C | 74% | 1005.6 hPa | 0 mm | - | - | - |
| 1777786662 | 21.11° C | 74% | 1005.5 hPa | 0 mm | - | - | - |
| 1777786063 | 21.11° C | 74% | 1005.7 hPa | 0 mm | - | - | - |
| 1777785463 | 21.11° C | 73% | 1005.8 hPa | 0 mm | - | - | - |
| 1777784863 | 21.11° C | 73% | 1005.9 hPa | 0 mm | - | - | - |
| 1777784262 | 21.67° C | 72% | 1006.1 hPa | 0 mm | - | - | - |
| 1777783662 | 21.11° C | 74% | 1006.3 hPa | 0 mm | - | - | - |
| 1777783062 | 21.11° C | 75% | 1006.5 hPa | 0 mm | - | - | - |
| 1777782462 | 21.11° C | 76% | 1006.7 hPa | 0 mm | - | - | - |
| 1777781862 | 21.11° C | 76% | 1006.8 hPa | 0 mm | - | - | - |
| 1777781262 | 21.67° C | 75% | 1007.1 hPa | 0 mm | - | - | - |
* Rain latest hour (hover to see other rain measurements)
** Current wind speed in m/s (hover to see current wind gust speed)